Wetbulb
55.09 55.21 55.06 55.05 55.17 55.09 55.04 55.04 54.99 55.17 55.34 55.41 55.69 55.69 55.56 55.94 56.10 54.46 50.79 55.74 59.23 63.25 60.16 57.68 57.35 59.31 58.86 56.39 56.33 55.01 47.88 47.09 49.27 50.63 52.28 56.68 55.83 57.78 58.66 56.98 59.56 60.88 62.37 73.64 74.39
54.74 54.92 54.79 54.87 54.87 54.80 54.71 54.58 54.91 54.74 54.83 55.05 55.36 55.37 55.32 55.32 51.92 50.64 58.28 64.33 64.41 62.11 55.92 53.81 53.27 57.53 55.29 55.03 55.12 51.78 47.93 48.07 52.58 54.07 53.63 55.41 55.84 57.24 55.55 55.18 55.81 59.46 67.78 73.42 74.81
54.38 54.24 54.18 54.24 54.26 54.16 54.28 54.24 54.35 54.62 54.57 54.55 54.48 54.77 55.30 54.76 50.35 55.16 60.98 62.25 63.60 60.14 55.77 55.24 54.51 55.36 54.14 54.86 53.03 51.67 47.97 50.89 52.25 54.12 55.47 55.14 55.59 57.79 55.49 53.11 54.98 55.42 61.22 68.48 71.61
53.91 53.96 53.92 53.81 53.91 53.94 53.96 54.14 54.36 54.52 54.51 54.43 54.16 54.18 54.71 52.84 45.66 59.24 60.76 62.31 62.12 58.83 57.52 54.99 51.88 51.00 51.51 51.88 54.19 48.81 50.48 51.22 51.85 53.35 53.08 52.68 55.04 54.12 55.22 55.55 57.79 57.88 59.93 65.76 69.38
53.54 53.74 53.48 53.47 53.63 53.85 54.31 54.01 54.10 54.16 54.03 54.00 53.48 53.84 52.81 49.57 51.25 59.52 62.60 61.37 60.66 60.75 59.08 56.87 52.61 50.43 49.29 52.09 53.34 51.26 50.93 51.45 52.12 52.27 52.34 52.65 51.34 52.83 53.63 56.44 57.52 57.52 59.18 63.66 66.66
53.89 53.53 53.51 53.67 54.10 54.12 54.18 54.24 54.07 54.20 53.31 53.79 53.75 53.81 50.67 43.83 56.44 59.98 57.26 55.63 57.79 57.92 57.32 57.37 54.35 53.18 51.59 51.66 51.22 53.52 53.69 53.48 53.25 52.26 52.12 50.56 50.70 51.99 53.29 56.05 56.15 56.25 56.06 57.18 57.86
53.52 53.52 53.37 53.56 53.74 53.81 53.87 53.70 53.56 53.30 53.25 53.95 54.62 54.59 49.70 48.47 56.92 57.15 56.23 54.91 55.27 55.07 56.17 57.99 57.98 55.16 54.47 51.16 54.18 53.30 50.32 52.83 53.97 54.20 52.06 52.61 48.54 49.15 52.89 54.57 54.56 55.00 55.98 56.04 57.74
53.33 52.94 53.14 53.22 53.58 53.80 54.07 53.84 53.66 53.44 53.70 54.61 55.62 54.21 46.66 56.57 57.93 56.30 56.28 54.84 55.63 56.19 55.85 57.87 58.49 55.97 54.19 54.68 52.23 49.87 50.36 47.09 52.12 53.57 54.09 52.50 46.15 50.64 53.08 52.81 52.86 53.48 54.74 55.58 56.50
52.87 52.54 52.58 53.12 53.43 53.70 53.55 53.39 53.70 54.37 54.71 55.14 53.29 52.17 49.28 57.81 54.52 55.79 55.20 52.41 53.46 54.24 55.55 57.49 56.11 52.61 52.84 48.89 46.59 48.27 44.55 46.16 48.25 53.36 53.13 51.02 47.81 51.92 53.54 52.83 52.52 53.54 54.44 54.73 55.61
52.46 52.06 52.33 52.81 53.26 53.08 52.77 53.09 54.84 54.26 55.01 56.28 55.54 50.30 53.19 51.63 55.50 55.05 58.15 56.08 54.97 54.39 50.67 51.35 50.11 47.07 47.87 46.56 40.51 42.94 44.26 46.06 46.25 50.91 51.63 50.54 50.24 52.38 53.46 52.52 53.16 53.90 53.51 54.54 55.11
52.21 52.25 51.90 52.27 52.58 52.28 52.03 55.34 52.62 50.73 53.39 51.06 50.92 51.03 51.70 55.74 55.80 55.07 57.36 56.23 55.52 53.35 47.37 48.42 44.55 41.70 44.37 46.74 47.21 47.19 46.08 45.34 48.35 51.63 50.43 50.32 50.25 52.20 53.47 53.06 52.42 53.18 54.30 54.15 55.02
51.92 52.10 52.08 51.90 51.96 52.21 52.78 52.81 51.28 51.24 44.94 50.66 50.20 50.46 52.46 53.20 49.01 51.51 53.97 50.07 49.97 46.53 49.34 46.85 41.92 46.71 48.05 46.72 46.25 45.82 44.29 44.43 48.05 50.41 50.09 50.33 49.55 52.96 54.08 53.07 53.36 53.64 54.37 54.67 55.79
51.27 51.42 51.73 51.65 51.42 53.64 54.61 53.66 55.86 54.50 45.06 47.31 50.46 50.33 50.99 52.33 48.20 47.88 50.70 50.52 46.58 46.10 46.26 44.31 46.15 48.99 47.51 46.05 44.30 44.05 43.55 44.26 44.21 47.81 49.61 49.37 48.36 50.80 52.98 54.79 55.07 54.57 55.51 55.40 54.63
50.92 51.12 51.01 51.10 51.51 55.18 54.14 56.27 56.88 55.75 40.52 44.69 47.71 50.28 52.91 53.08 49.33 54.44 55.34 52.55 47.48 44.21 47.09 46.42 49.06 46.93 46.08 45.10 46.54 41.92 46.32 45.37 44.97 44.33 41.13 48.51 40.36 49.06 50.98 51.47 53.57 54.83 54.30 54.66 54.56
50.81 50.96 50.68 50.05 50.69 53.68 55.44 56.66 56.73 54.09 31.33 47.40 49.51 56.71 54.11 50.81 50.96 50.92 56.28 52.54 46.34 46.38 46.58 43.24 45.03 45.69 44.27 44.78 47.04 44.79 48.08 45.55 44.80 43.25 43.32 44.01 41.58 45.62 50.60 48.86 51.25 54.19 55.40 56.41 55.74
50.50 50.66 50.05 52.65 53.96 56.23 56.59 56.45 54.12 40.04 33.14 43.66 47.44 46.34 46.11 48.83 48.78 50.07 50.01 52.13 50.90 46.69 47.05 46.22 49.82 48.05 46.99 48.11 48.40 49.12 46.17 45.89 44.94 43.19 36.49 42.18 42.56 43.01 46.80 49.57 51.97 53.56 55.18 56.30 56.47
50.20 49.97 48.86 52.75 52.27 56.06 55.53 51.82 40.24 34.78 45.87 41.93 41.75 44.58 44.34 43.86 44.60 45.40 44.51 43.60 41.36 38.29 39.13 43.16 44.33 46.97 47.65 43.79 46.66 45.51 41.74 35.16 34.42 35.36 34.79 43.17 41.28 44.13 49.58 51.70 52.49 53.25 54.74 55.95 57.15
48.86 48.12 52.73 54.96 57.21 55.07 51.89 43.82 33.01 40.14 38.97 42.57 41.08 40.36 38.04 40.81 41.68 42.98 41.97 39.59 43.77 42.41 37.20 33.60 33.92 44.25 47.54 45.33 42.79 43.74 42.86 36.53 29.18 31.01 35.06 43.06 38.48 43.46 50.63 52.21 54.17 54.46 55.58 56.88 56.83
47.44 51.64 53.47 55.96 56.25 53.07 46.10 36.36 37.70 38.44 40.14 37.71 37.89 34.70 35.20 37.69 37.57 37.69 38.93 38.87 42.34 43.70 36.40 37.40 37.42 45.95 45.73 46.92 46.28 42.80 35.56 42.36 37.83 40.54 36.77 39.98 43.92 48.32 50.90 50.98 52.31 52.96 54.73 56.25 57.26
46.47 49.32 52.30 56.67 56.38 49.95 42.54 38.01 40.83 41.85 40.57 38.91 32.57 35.39 31.35 34.16 34.36 35.72 36.06 41.00 41.32 44.68 46.16 40.66 33.68 42.01 43.15 46.01 46.91 44.80 46.71 36.81 37.77 31.20 29.26 36.73 40.13 42.32 47.07 49.53 51.42 52.78 53.79 56.90 58.24
47.56 46.68 53.13 55.05 53.45 46.51 38.27 39.43 40.48 42.42 41.46 37.52 34.96 33.90 34.19 33.23 34.79 34.01 34.66 39.42 41.90 42.91 44.60 40.47 37.69 37.90 41.33 40.15 40.18 41.54 39.49 39.25 39.62 40.70 34.66 33.19 38.70 49.77 48.88 51.88 51.94 53.21 54.39 56.61 58.44
45.44 41.55 53.17 53.76 42.74 44.15 39.49 40.07 41.09 40.63 42.49 40.15 39.48 37.45 34.92 35.42 33.24 32.81 33.78 38.43 44.23 43.74 39.71 39.86 38.28 34.26 37.29 41.02 44.13 43.47 43.14 42.55 35.94 35.80 40.68 38.59 36.43 50.28 51.97 54.68 54.09 55.32 58.10 60.57 64.38
42.32 45.83 53.31 51.53 38.06 38.93 40.99 40.45 41.60 40.07 40.02 39.18 37.59 39.01 38.80 34.48 31.44 35.07 35.11 40.92 42.79 42.42 39.03 41.67 36.74 32.00 36.53 42.02 42.67 40.46 42.84 42.88 42.25 40.88 37.54 36.21 39.42 52.82 51.71 55.02 56.81 58.52 59.99 61.77 63.01
44.19 40.96 45.83 46.60 45.40 39.76 37.87 38.27 38.39 42.70 40.81 40.94 38.82 40.09 35.92 35.50 38.12 34.59 35.08 40.22 43.39 42.71 43.98 43.29 37.35 34.37 30.82 34.47 38.34 36.27 39.49 41.34 42.06 37.19 38.76 39.07 42.61 48.81 49.17 52.71 54.06 57.64 59.36 60.48 61.64
45.60 42.09 43.02 36.78 38.69 39.29 40.18 39.40 37.60 36.60 40.73 40.81 37.58 38.03 35.67 32.28 34.56 34.96 37.86 40.02 42.84 44.42 43.77 41.80 32.62 36.15 37.15 38.21 39.12 38.96 38.93 40.32 40.01 42.16 39.11 41.51 42.62 45.31 50.62 53.06 53.88 57.11 58.91 59.43 60.21
40.73 39.29 41.85 39.69 40.91 38.73 39.41 37.79 36.75 37.76 36.78 35.85 35.12 37.05 37.12 33.95 35.14 34.02 37.02 37.79 37.20 41.88 40.92 42.13 34.59 36.53 33.46 38.69 39.44 37.91 40.23 41.00 41.79 43.22 44.30 42.73 41.07 50.07 52.57 53.28 54.04 56.21 57.18 57.70 58.62
45.40 45.36 40.44 38.27 38.12 37.52 37.74 37.53 36.73 37.91 38.75 39.02 37.80 36.96 36.45 38.33 41.47 41.93 42.22 42.11 41.17 39.60 38.75 38.87 36.40 33.50 30.26 36.30 34.66 35.96 40.30 42.00 43.52 46.59 45.92 41.96 45.68 49.67 50.85 51.48 53.46 54.84 55.58 55.84 54.46
MSLP
1020.61 1020.18 1019.74 1019.29 1018.88 1018.44 1017.97 1017.53 1017.08 1016.72 1016.43 1016.10 1015.70 1015.24 1014.80 1014.27 1013.46 1011.98 1009.80 1007.96 1007.55 1007.90 1008.02 1007.82 1007.09 1005.90 1005.74 1005.03 1004.29 1003.34 1002.17 999.77 998.70 997.77 996.43 995.14 993.93 993.55 993.96 994.52 994.59 994.94 995.57 996.68 997.35
1020.60 1020.11 1019.64 1019.20 1018.76 1018.34 1017.90 1017.45 1016.98 1016.51 1016.13 1015.75 1015.35 1015.00 1014.58 1014.10 1012.81 1009.76 1007.36 1006.88 1006.95 1007.46 1007.55 1006.86 1006.13 1005.17 1004.54 1003.69 1003.50 1002.53 1000.75 999.05 998.79 997.56 996.49 995.67 994.37 993.66 993.88 994.65 994.83 995.18 996.06 997.17 997.83
1020.55 1020.04 1019.54 1019.00 1018.44 1017.93 1017.51 1017.08 1016.67 1016.20 1015.78 1015.49 1015.21 1014.85 1014.34 1013.73 1011.06 1006.03 1006.58 1006.52 1006.70 1007.24 1007.21 1006.84 1005.96 1005.00 1003.74 1003.11 1002.12 1001.62 999.60 999.44 998.15 997.62 996.89 995.77 994.70 994.13 993.99 994.43 995.35 995.36 995.74 997.00 997.82
1020.47 1019.91 1019.36 1018.83 1018.21 1017.63 1017.15 1016.68 1016.26 1015.85 1015.46 1015.18 1014.92 1014.69 1014.22 1013.52 1008.99 1005.86 1006.32 1006.19 1006.77 1006.98 1006.94 1006.44 1006.08 1004.71 1003.38 1001.86 1001.50 1000.42 999.50 999.16 998.55 997.69 996.94 995.91 995.52 994.63 994.62 994.84 995.24 995.54 995.56 996.38 997.48
1020.37 1019.78 1019.18 1018.60 1018.04 1017.45 1016.86 1016.31 1015.77 1015.36 1015.02 1014.80 1014.62 1014.50 1013.78 1011.14 1007.09 1004.53 1005.84 1006.10 1006.11 1006.28 1005.90 1005.58 1004.96 1004.08 1002.58 1001.67 1000.77 999.27 999.05 998.49 998.28 997.94 997.03 996.74 995.75 995.00 995.19 995.30 995.50 995.73 995.88 996.68 997.42
1020.38 1019.70 1018.94 1018.14 1017.45 1016.85 1016.36 1015.88 1015.40 1014.88 1014.56 1014.36 1014.18 1014.23 1013.13 1009.35 1004.41 1004.60 1004.60 1004.88 1005.06 1004.74 1004.39 1004.22 1003.55 1003.23 1002.06 1001.04 1000.19 999.69 998.94 998.02 997.58 997.11 996.98 996.91 996.10 995.66 995.51 995.89 995.91 996.00 996.45 997.22 997.73
1020.26 1019.60 1018.88 1018.04 1017.23 1016.40 1015.61 1015.17 1014.82 1014.40 1013.97 1013.64 1013.50 1013.32 1011.35 1005.87 1003.81 1003.61 1003.91 1004.24 1004.00 1003.98 1003.50 1003.24 1002.90 1002.50 1001.78 1001.12 1000.33 999.57 998.78 997.86 996.68 996.60 996.69 997.10 996.30 995.42 996.18 996.40 996.13 996.23 996.49 996.94 997.54
1020.04 1019.43 1018.70 1017.82 1016.88 1015.87 1014.85 1014.05 1013.77 1013.56 1013.19 1012.96 1012.91 1012.24 1008.48 1004.08 1003.80 1003.51 1003.63 1003.49 1003.73 1003.29 1003.12 1002.89 1002.45 1002.09 1001.63 1001.16 1000.26 999.48 998.65 997.00 996.04 996.71 995.86 996.97 995.24 995.49 996.19 996.33 996.13 996.45 996.81 996.97 997.26
1019.92 1019.24 1018.47 1017.54 1016.50 1015.49 1014.40 1013.37 1012.70 1012.50 1012.34 1012.41 1012.20 1010.89 1006.06 1003.80 1003.64 1003.30 1003.43 1003.16 1003.23 1003.44 1003.56 1003.16 1003.00 1002.52 1002.10 1001.18 1000.41 999.30 997.15 996.55 996.90 996.20 995.98 996.22 994.79 995.77 996.03 995.96 996.09 996.41 996.72 997.01 997.27
1019.83 1019.04 1018.12 1017.10 1016.10 1014.99 1013.76 1011.86 1011.45 1011.95 1011.70 1011.28 1010.30 1009.38 1004.86 1002.36 1001.66 1002.43 1002.46 1002.92 1002.75 1002.70 1003.28 1003.46 1003.12 1002.34 1001.51 1000.69 998.59 998.36 997.33 996.81 995.89 995.49 995.45 995.28 993.98 995.28 995.41 995.57 995.65 995.92 996.37 996.42 996.70
1019.68 1018.82 1017.81 1016.60 1015.69 1014.70 1013.58 1010.52 1010.24 1010.36 1009.85 1007.84 1005.84 1004.12 1002.04 1001.12 1001.53 1001.69 1002.24 1002.54 1002.66 1002.44 1002.04 1002.44 1002.38 1000.48 1000.06 999.80 999.18 998.25 997.24 996.11 995.08 994.78 994.86 993.83 993.56 993.63 994.56 995.09 995.38 995.29 995.41 995.53 995.93
1019.19 1018.28 1017.27 1016.18 1015.00 1014.29 1013.74 1010.86 1009.90 1009.77 1006.48 1005.54 1003.27 1002.40 1001.63 1001.74 1000.56 1000.34 1001.26 1001.78 1002.10 1001.55 1001.40 1001.42 1000.11 999.79 999.72 999.08 998.19 997.92 997.42 996.32 995.32 994.60 993.95 993.36 992.66 992.54 992.87 993.66 994.53 994.89 994.52 994.77 995.37
1018.99 1018.05 1016.94 1015.42 1014.14 1012.77 1011.31 1009.72 1009.52 1009.05 1007.56 1002.47 1000.36 999.73 999.75 999.96 999.91 999.90 1000.51 1000.65 1001.02 1000.87 1000.66 999.70 998.78 998.74 998.37 997.93 997.46 996.93 996.48 996.10 995.80 995.40 994.40 993.64 992.76 992.02 992.01 992.28 993.24 994.02 994.47 994.50 994.86
1018.95 1017.94 1017.14 1015.91 1013.40 1011.62 1009.83 1009.61 1009.33 1009.37 1007.02 1000.42 998.94 999.02 999.68 1000.29 999.87 999.83 999.69 999.93 1000.17 1000.28 999.90 998.80 998.02 997.56 997.03 996.68 996.58 996.26 996.57 996.08 995.85 995.47 994.38 993.94 992.77 992.07 991.99 992.11 992.38 992.62 993.43 993.76 994.34
1018.75 1017.76 1016.66 1016.11 1014.36 1011.41 1010.00 1009.57 1009.58 1009.43 1005.78 999.19 999.33 999.73 999.36 999.72 999.02 998.89 999.23 999.11 999.75 999.48 999.59 999.57 998.49 997.29 996.50 997.48 996.64 996.36 996.15 996.08 995.84 995.46 995.00 993.83 992.95 992.80 991.90 991.99 992.17 991.90 991.99 992.37 993.26
1018.20 1017.04 1016.65 1013.72 1013.03 1011.21 1009.78 1009.58 1009.30 1008.62 1003.73 1000.39 1000.94 1000.81 1000.95 1000.13 999.00 998.97 999.80 1000.31 1000.50 1000.23 999.17 998.38 998.30 997.43 996.88 996.76 996.59 996.43 997.35 997.04 995.68 995.47 994.26 994.02 993.14 992.21 991.67 990.71 990.56 990.74 991.12 991.63 992.27
1017.59 1016.43 1015.79 1014.49 1011.74 1010.34 1010.22 1009.42 1008.22 1006.23 1002.62 1001.72 1002.12 1002.00 1001.66 1000.92 1000.45 1000.24 999.77 999.35 999.36 999.33 999.07 998.86 997.93 996.87 996.62 996.39 996.14 996.45 997.80 997.70 995.65 994.85 994.08 994.11 992.92 991.48 991.10 990.23 989.60 989.17 989.35 990.09 991.10
1017.37 1015.32 1013.18 1011.85 1010.95 1010.62 1010.58 1009.54 1007.70 1005.67 1005.49 1004.61 1004.33 1003.76 1003.25 1002.43 1001.54 1001.02 1000.94 1001.41 1001.08 1000.60 1000.13 1000.83 999.53 997.21 996.53 996.02 996.48 996.76 997.50 997.86 996.42 995.26 994.39 993.21 991.55 990.48 990.26 989.94 988.92 987.92 987.98 988.62 989.96
1016.96 1013.43 1011.29 1009.97 1010.42 1010.47 1010.18 1008.76 1006.36 1006.57 1006.61 1006.22 1005.54 1005.24 1004.31 1004.15 1003.79 1003.30 1002.00 1000.75 1000.61 1000.47 1001.61 1000.42 998.56 997.92 997.72 997.80 996.77 996.86 998.26 999.31 999.30 995.69 993.95 992.28 991.04 989.95 989.25 989.10 988.65 988.26 987.82 987.98 989.10
1017.07 1013.41 1010.46 1010.01 1010.16 1010.32 1010.13 1008.45 1007.19 1007.27 1007.47 1007.38 1006.94 1006.90 1006.10 1005.66 1005.18 1004.01 1002.96 1002.05 1001.53 1001.58 1002.48 1002.48 1001.49 999.43 998.02 997.96 997.74 997.46 998.20 999.62 998.55 996.79 995.09 993.74 991.61 988.62 988.28 987.62 987.78 987.92 988.33 988.50 989.16
1016.34 1012.43 1009.72 1009.89 1009.74 1009.60 1008.89 1007.86 1007.68 1007.99 1007.70 1007.79 1007.59 1007.49 1007.61 1007.14 1006.93 1005.74 1004.22 1003.08 1002.75 1003.16 1003.64 1003.75 1003.21 1000.96 1000.04 999.79 997.89 997.76 998.65 999.55 999.80 996.48 994.40 993.93 992.23 990.81 989.63 987.21 987.38 987.75 988.74 989.40 990.02
1016.21 1012.53 1009.59 1009.78 1009.48 1008.13 1008.23 1008.78 1008.63 1007.76 1007.73 1008.02 1008.33 1008.46 1008.57 1008.51 1007.36 1006.73 1005.32 1003.66 1003.41 1004.08 1004.03 1004.40 1003.94 1001.69 999.74 999.00 999.57 998.47 997.17 998.02 998.69 996.86 994.85 994.36 995.08 993.05 991.29 988.10 988.04 988.70 989.34 990.17 991.50
1016.54 1012.44 1009.68 1009.69 1009.13 1008.85 1009.33 1008.89 1008.34 1007.91 1008.38 1008.08 1008.43 1008.56 1009.72 1009.32 1008.20 1007.19 1006.76 1006.21 1005.32 1004.52 1004.48 1004.37 1003.55 1002.02 998.68 997.50 998.88 998.86 997.95 997.86 997.66 997.76 996.70 995.45 994.50 993.85 993.02 991.85 991.00 991.69 992.21 992.88 993.44
1017.23 1012.89 1010.86 1010.56 1010.06 1010.61 1010.07 1009.12 1008.31 1008.40 1008.82 1008.78 1008.70 1008.80 1009.93 1008.66 1007.60 1006.80 1006.06 1005.51 1004.82 1003.91 1004.43 1004.55 1003.76 1003.08 1001.30 999.83 1000.14 999.34 998.07 997.34 997.34 997.30 996.31 995.64 994.68 993.85 993.88 993.44 994.53 993.89 994.05 994.49 994.46
1016.87 1014.33 1013.89 1012.26 1011.79 1011.97 1010.84 1009.52 1009.20 1008.89 1009.44 1009.56 1009.06 1008.98 1009.26 1008.43 1007.30 1006.17 1005.32 1003.99 1002.88 1003.40 1003.88 1003.83 1003.57 1002.92 1001.93 1000.86 999.79 998.54 997.36 996.58 996.12 996.31 995.98 994.57 995.28 995.82 994.67 994.55 995.55 995.26 995.30 995.45 995.74
1017.61 1016.92 1015.85 1014.34 1013.06 1012.33 1010.54 1010.10 1009.87 1009.96 1010.51 1009.88 1009.93 1009.46 1008.92 1008.20 1007.39 1005.93 1005.40 1004.82 1004.00 1003.02 1002.72 1003.86 1003.78 1003.22 1001.62 1000.13 998.76 997.10 995.88 995.48 995.04 994.97 994.56 995.77 996.12 996.52 996.34 996.24 996.46 996.30 996.45 996.69 996.64
1019.06 1018.56 1017.76 1015.61 1014.07 1012.52 1011.49 1011.46 1011.25 1011.26 1010.96 1010.81 1010.08 1009.49 1008.68 1008.31 1007.50 1005.82 1004.72 1004.29 1003.99 1003.34 1003.11 1003.46 1003.73 1003.72 1001.35 1000.25 999.12 995.69 993.17 993.62 993.96 993.94 993.61 995.10 996.31 996.38 997.37 997.48 997.65 997.33 997.62 998.35 998.65
Wind_Speed
16 16 16 17 18 18 19 19 20 19 18 18 18 19 20 21 24 24 26 20 10 2 4 18 17 18 18 20 22 20 17 18 27 27 21 22 25 5 4 11 18 9 8 15 18
18 17 17 17 17 17 18 18 19 20 20 19 19 19 20 20 23 27 24 14 10 9 13 14 16 16 17 18 20 21 18 28 23 24 24 27 27 23 13 15 16 11 13 14 12
18 18 19 19 19 18 17 17 17 18 18 18 19 18 20 22 19 1 8 12 10 8 15 18 18 21 22 21 22 24 26 23 25 26 28 26 27 24 11 13 14 18 16 14 14
20 20 20 20 21 21 21 20 20 20 19 18 16 16 17 13 8 7 8 11 7 8 12 16 18 22 24 26 24 28 30 28 26 27 24 24 27 22 15 15 15 19 15 18 17
22 23 23 23 23 22 21 22 22 21 21 18 17 14 11 10 16 10 11 8 8 11 15 16 19 21 25 24 24 30 28 28 27 26 26 23 27 22 20 14 12 11 6 12 8
22 24 25 25 25 24 23 22 21 21 22 20 16 11 11 15 14 15 8 8 13 15 16 17 18 21 22 23 29 24 26 28 25 28 26 26 27 17 20 20 18 16 10 12 11
21 22 24 25 26 26 26 24 21 21 23 20 16 10 15 30 10 5 8 11 12 15 18 18 18 20 19 24 25 25 30 29 28 29 28 26 26 30 20 23 23 18 16 14 16
22 23 25 27 27 28 29 27 23 22 18 17 12 11 13 13 9 18 18 19 15 14 17 16 18 19 22 23 24 24 27 27 27 27 27 23 29 27 23 22 22 20 18 16 17
24 24 26 27 28 29 30 29 29 21 12 7 9 13 12 2 11 14 15 15 15 15 14 11 14 17 18 20 21 23 23 28 25 26 29 24 32 26 23 24 23 21 20 19 17
25 26 27 29 29 30 32 32 14 8 8 10 12 10 12 13 2 6 10 14 14 11 15 15 10 17 19 17 21 23 26 27 28 23 28 28 32 24 25 22 22 19 22 21 21
27 27 28 29 28 28 21 12 3 8 11 15 16 17 20 14 11 11 9 8 14 17 18 18 16 22 23 24 27 26 25 28 27 26 29 25 30 25 23 21 16 22 24 26 22
28 28 29 29 30 27 13 10 13 13 23 20 34 34 34 27 29 23 12 18 15 20 20 18 24 24 21 24 26 27 27 29 26 26 24 24 29 25 25 25 22 19 15 13 17
28 28 30 33 31 14 13 7 10 15 13 24 26 21 23 19 21 20 18 19 24 21 23 23 25 25 26 24 25 26 26 25 26 25 28 21 24 24 19 23 20 22 20 16 14
29 29 27 31 14 15 8 13 12 12 9 22 7 3 5 5 12 17 19 16 20 25 24 22 24 27 26 22 26 24 23 26 26 24 20 22 16 21 19 17 19 23 24 20 20
29 28 29 21 12 9 10 11 11 8 10 5 8 4 7 11 14 7 15 11 20 21 21 19 29 21 22 26 24 21 19 22 25 23 24 27 15 18 20 23 22 22 20 22 23
31 32 28 15 10 14 15 13 9 7 11 11 19 21 16 21 13 15 13 16 21 26 22 27 26 24 24 22 24 21 16 29 23 18 19 23 23 16 23 20 24 23 23 22 19
34 35 25 11 8 13 13 11 9 12 16 23 29 24 21 23 24 26 26 27 22 23 24 22 28 27 25 29 27 19 10 13 14 16 16 22 26 18 23 24 21 21 27 26 22
35 38 10 9 10 11 11 12 13 12 17 27 27 31 29 29 28 22 18 17 20 29 7 16 22 30 22 20 22 22 19 11 13 15 20 25 25 22 26 26 24 14 23 24 24
34 11 13 9 3 7 8 10 12 18 24 25 30 23 27 30 32 28 28 25 22 19 6 10 18 16 16 19 18 26 8 10 17 23 16 14 27 28 23 29 28 14 8 20 18
13 12 8 4 6 8 7 14 18 22 23 21 25 24 27 27 27 28 24 20 19 17 11 7 9 12 20 9 22 21 5 16 15 21 9 14 21 19 25 27 25 19 10 7 11
8 9 8 6 10 7 10 14 22 22 17 18 20 23 24 21 18 22 27 25 13 10 4 5 6 6 5 6 20 18 11 3 6 19 16 9 8 13 23 17 22 16 15 11 10
8 9 11 5 11 4 8 19 17 17 13 17 15 18 19 20 15 18 21 22 8 6 10 4 6 8 16 13 22 13 20 20 5 14 17 6 4 20 21 10 15 10 12 11 16
9 12 5 11 10 10 17 19 18 14 16 15 17 19 13 10 10 7 6 13 16 9 2 2 3 8 11 11 3 5 13 16 11 4 21 12 9 11 16 14 11 16 13 12 14
7 9 9 10 9 18 19 20 18 13 16 20 19 17 5 20 18 16 9 6 15 6 7 6 3 7 11 13 10 8 20 13 13 9 15 14 19 4 10 13 6 9 11 11 14
5 8 14 10 14 17 19 20 16 19 16 19 17 15 23 16 23 19 24 22 19 10 4 1 4 12 17 19 21 22 23 20 17 16 16 15 14 10 10 8 7 5 9 12 14
8 12 9 16 12 19 20 15 22 21 22 19 16 26 22 17 19 25 21 19 18 16 11 3 4 14 19 19 19 25 24 22 19 18 14 12 6 2 5 6 3 8 9 11 12
10 12 9 10 14 16 16 21 18 20 10 22 20 22 22 19 22 24 22 21 22 21 18 15 8 6 9 10 21 11 25 20 18 20 18 19 13 9 11 10 6 12 9 16 17
Wind_Direction
353 349 344 339 336 333 331 328 326 324 323 321 319 318 317 314 308 288 272 246 250 98 210 263 273 247 228 236 239 239 242 244 242 248 254 263 270 148 165 239 261 158 159 82 128
349 345 341 336 331 328 323 320 319 318 318 319 319 318 315 315 299 282 262 269 218 155 244 243 245 238 229 230 231 228 239 236 245 251 250 263 271 276 189 214 241 205 126 126 160
346 343 340 335 330 325 320 315 311 308 309 312 315 316 312 313 297 86 77 61 121 167 246 253 265 259 231 231 229 229 240 247 246 249 263 266 266 282 232 203 234 250 186 160 175
344 341 338 334 329 324 321 316 314 311 310 310 313 309 306 306 291 99 138 120 127 230 234 232 240 241 245 234 232 241 235 243 255 268 271 259 264 271 257 239 220 237 213 181 197
343 340 336 332 327 322 317 315 312 309 307 306 306 304 299 236 248 251 149 160 204 207 218 228 228 236 239 246 241 238 243 242 240 252 259 272 269 256 261 241 256 284 140 145 190
340 336 332 328 323 318 314 310 308 306 306 303 298 288 255 259 255 151 204 222 219 218 231 229 230 236 257 246 248 254 253 258 250 246 248 255 261 258 242 262 231 242 204 181 212
335 331 326 323 318 314 310 305 302 300 300 294 287 247 252 246 268 227 235 237 241 233 242 239 244 251 255 255 262 253 254 262 248 240 246 247 251 249 235 244 251 240 244 234 199
334 331 326 321 317 314 310 306 301 297 290 282 257 227 256 277 249 243 241 252 245 258 245 254 265 256 255 266 267 261 252 244 240 250 243 242 246 240 240 234 241 242 244 241 237
334 330 325 322 318 315 312 304 300 292 274 226 209 216 260 116 238 243 261 245 240 236 254 262 261 258 256 247 253 245 249 239 251 246 238 216 245 243 239 232 232 235 231 235 238
334 330 326 323 322 320 317 298 271 289 216 202 256 228 228 249 268 223 206 225 247 232 224 230 240 239 233 237 232 237 241 242 255 243 230 240 237 233 239 241 252 231 230 231 227
335 331 326 322 322 320 326 311 299 202 212 252 266 232 279 227 186 203 245 224 251 242 230 218 231 233 227 226 247 257 253 253 251 230 240 240 237 231 217 219 233 228 238 215 224
333 329 325 322 319 316 295 296 359 304 297 259 258 257 263 271 274 262 217 228 229 239 236 232 233 242 246 251 245 236 249 264 269 271 271 239 242 236 217 207 220 239 244 221 208
329 328 327 325 318 294 248 344 322 314 291 293 259 258 231 237 248 261 243 230 239 240 236 242 239 238 236 244 251 251 248 246 250 260 268 265 262 242 241 210 212 206 237 217 218
328 326 327 330 297 327 311 350 327 349 281 274 149 170 140 232 238 234 256 226 231 239 257 247 242 244 254 246 237 239 250 257 253 259 251 249 258 248 228 245 238 211 211 208 207
326 324 325 315 297 297 344 321 334 282 289 29 91 89 243 212 316 249 224 220 235 250 261 264 289 298 265 242 269 291 268 241 262 244 257 256 253 251 222 224 234 240 226 216 199
326 322 329 300 212 257 328 326 283 247 250 15 13 350 317 292 304 299 210 214 236 271 262 262 277 267 259 257 273 277 290 300 232 249 243 245 250 227 255 229 220 217 222 222 209
324 319 317 288 290 329 329 299 270 240 312 346 344 334 314 305 309 302 292 288 276 258 241 283 271 251 251 259 258 240 234 242 231 224 241 234 244 243 238 247 245 244 210 208 203
323 312 277 251 265 335 314 284 258 314 319 341 337 327 311 314 303 305 305 291 312 305 223 220 258 250 258 233 249 270 246 244 211 225 237 222 235 229 231 254 249 275 219 191 197
318 307 290 212 308 335 298 271 298 351 342 334 323 313 311 311 307 302 285 294 288 289 235 295 277 330 312 320 242 231 200 249 275 240 239 240 225 232 230 220 238 243 288 184 192
315 297 260 66 321 307 295 269 308 349 332 324 313 319 313 312 308 305 294 300 314 356 23 23 297 284 261 287 262 252 319 205 219 252 192 261 252 222 214 210 219 210 211 202 181
272 299 100 0 305 262 267 310 333 325 324 328 321 320 322 327 311 299 294 288 289 311 327 341 259 292 55 249 245 241 207 145 300 253 232 241 271 336 316 193 194 183 179 195 155
295 291 322 1 298 249 322 334 318 320 338 334 339 319 318 329 313 301 276 281 26 340 328 129 278 275 276 191 238 308 218 206 180 249 249 190 256 293 323 45 160 145 148 136 99
297 291 81 349 304 338 334 311 313 339 320 336 331 311 21 304 302 328 307 308 328 298 328 331 250 312 311 172 144 323 245 244 220 244 267 284 209 164 316 46 41 103 110 110 102
286 313 339 312 330 349 316 310 316 343 336 333 327 327 288 317 315 305 340 253 228 278 169 275 251 273 284 308 285 304 297 295 222 214 241 252 286 201 165 119 191 127 126 143 132
264 329 341 311 330 310 295 298 319 336 340 335 317 326 323 314 311 312 322 327 327 102 174 153 288 302 296 298 291 278 276 279 269 199 242 268 270 274 18 59 117 158 159 150 149
312 345 330 296 313 293 295 353 341 338 338 316 326 313 310 295 301 309 315 309 311 298 285 205 290 311 295 279 278 260 257 253 257 263 202 249 251 271 131 58 192 145 132 138 134
347 329 314 312 310 312 348 333 337 332 316 319 306 307 304 309 304 297 292 283 270 278 279 292 288 303 263 344 329 259 234 222 231 233 226 202 206 85 157 137 175 103 102 88 60